CAPE
1864 1722 1822 2234 2208 2095 2036 2010 2001 1992 1923 2144 2111 2091 2110 2085 2026 2019 2005 1922 1869 1768 1611 1495 1402 1335 1356 1324 1432 1396 1405 1367 1374 1348 1317 1325 1343 1411 1447 1610 1701 1830 1888 1812 1598 1832 1806 1674 1670 1804 1794 1925 1944 1796 1598 1566 1478 1454 1308 1319 1123 1156 1112 1101 997 974 857 910 967 1018 983 1046 1048 988 856 726 491 360 326 391 321 290 173 319 294
1909 1704 1816 2058 2188 2108 2059 2043 1998 2039 1956 1984 1996 2088 2030 2124 2100 1973 1943 1952 1860 1693 1590 1417 1386 1374 1300 1303 1270 1359 1401 1433 1363 1390 1324 1276 1293 1398 1501 1575 1707 1773 1756 1625 1690 1810 1877 1887 1875 1893 1944 1870 1878 1805 1786 1687 1566 1470 1476 1478 1404 1230 995 737 976 1097 1098 1075 1060 965 900 856 817 844 705 564 489 425 389 387 424 229 257 339 418
1753 1692 1780 2113 2200 2124 2090 2012 1911 1858 2048 1991 2028 2059 2039 2043 2110 2054 1924 1866 1778 1660 1543 1474 1360 1246 1104 1208 1162 1356 1424 1374 1416 1298 1266 1277 1389 1454 1472 1554 1664 1672 1614 1712 1755 1920 2071 2028 1995 2012 2169 2137 2014 1918 1781 1662 1652 1627 1571 1479 1418 1474 1411 1311 1120 1083 1099 1054 917 888 886 832 750 686 628 624 663 674 643 660 586 509 324 412 412
1740 1660 1807 2255 2190 2169 2129 1995 1966 1967 2041 2085 1999 2040 2058 2110 2053 1900 1916 1804 1739 1658 1484 1367 1245 1187 1195 1191 1258 1403 1403 1359 1233 1200 1217 1284 1338 1450 1441 1500 1673 1632 1568 1818 2008 2007 2081 2105 2047 2046 2047 1837 1727 1714 1718 1699 1705 1637 1595 1537 1490 1502 1498 1397 1261 1278 1251 1044 830 802 858 574 693 791 766 709 754 867 877 876 773 640 575 479 541
1740 1703 1873 1968 2038 2142 2079 2021 1916 1899 2101 2060 1906 1984 2050 2071 1951 1910 1907 1819 1715 1641 1510 1354 1279 1148 1175 1303 1364 1493 1416 1363 1276 1210 1163 1191 1280 1299 1340 1533 1646 1639 1755 1870 1913 2002 2088 2070 2130 2051 2077 1963 1814 1798 1735 1740 1428 1370 1533 1534 1517 1487 1342 1369 1003 1083 1069 1204 857 762 372 524 580 808 862 844 784 734 829 901 845 762 601 532 505
1688 1743 1708 1789 1856 2029 2051 1957 1902 1925 2010 1884 1876 1928 1980 2028 2007 1896 1906 1760 1664 1612 1444 1389 1225 1219 1214 1277 1423 1575 1512 1363 1373 1290 1152 1105 1190 1339 1455 1570 1607 1707 1842 1852 1858 1845 1846 1774 2018 2089 2042 2171 2037 2129 2045 1743 1488 1831 1572 1436 1551 1555 1383 965 827 955 890 1103 1184 1353 565 617 698 786 1016 1004 899 884 878 855 829 768 628 550 557
1747 1597 1545 1637 1784 1903 2004 1929 1737 1789 1788 1685 1763 1871 1900 2049 1942 1882 1770 1678 1610 1586 1398 1286 1288 1249 1367 1453 1443 1478 1456 1317 1439 1253 1111 1089 1099 1301 1485 1534 1566 1646 1858 1805 1713 1725 1685 1758 1976 2127 2181 2014 2175 2092 1977 1781 1950 1814 1577 1864 1633 1744 1473 849 697 746 1084 1458 1284 996 508 582 710 875 1100 1102 1152 1061 907 880 799 757 662 691 668
1559 1452 1448 1535 1670 2025 1994 1838 1825 1798 1735 1556 1544 1705 1775 1702 1866 1781 1630 1586 1554 1475 1372 1330 1249 1209 1541 1582 1486 1395 1326 1284 1278 1240 1086 1038 1124 1265 1354 1466 1468 1530 1680 1699 1569 1589 1581 1778 1944 2072 2166 2108 2021 2434 2256 2252 2197 1855 1829 2042 1762 2060 1712 1306 1010 1105 1293 762 660 704 572 602 654 775 1055 1057 1136 1227 1174 1005 860 729 695 708 761
1464 1427 1400 1468 1763 2003 1873 1826 1802 1710 1607 1417 1477 1511 1544 1492 1500 1470 1472 1433 1446 1370 1394 1268 1141 1224 1507 1568 1425 1341 1307 1213 1238 1210 1110 946 1027 1298 1434 1374 1384 1420 1521 1630 1575 1388 1434 1599 1909 1983 2118 2155 2115 2044 2269 2397 2211 2234 2042 2074 2155 2155 1508 981 898 581 579 499 419 525 530 562 659 772 1029 1085 1220 916 900 817 784 876 830 812 809
1521 1449 1416 1514 1780 2001 1928 1865 1852 1668 1443 1399 1350 1300 1302 1322 1445 1560 1449 1362 1462 1374 1401 1141 965 1201 1198 1592 1533 1341 1229 1150 1118 1190 1037 908 896 1108 1369 1323 1293 1318 1447 1545 1297 1175 1383 1602 1802 1950 2114 2125 2098 1975 1953 1880 1950 1827 2217 2336 2183 2205 1558 957 936 847 404 586 710 617 824 768 740 836 1036 1246 1237 1196 1164 1037 803 841 877 968 800
1546 1515 1446 1591 1834 1995 1931 1911 1844 1606 1374 1329 1327 1272 1209 1146 1072 1048 1243 1278 1322 1530 1360 972 895 1049 1367 1423 1562 1287 1151 1177 1185 1122 1042 915 806 901 1126 1340 1242 1156 1470 1502 1300 1325 1544 1598 1707 2057 2192 2218 2112 2145 2006 1904 2294 2249 2420 2462 2433 2383 1939 1208 801 593 576 927 1183 1108 1288 1236 873 921 1160 1213 1200 1106 1237 1112 1119 1019 929 951 792
1636 1583 1488 1631 2082 1996 1946 1931 1763 1594 1443 1388 1234 1180 1150 1133 980 1014 1089 1236 1338 1304 1246 959 848 930 1428 1597 1582 1365 1185 1230 1160 1092 966 911 738 686 840 1099 1013 1424 1296 1360 1325 1449 1477 1367 1787 2090 2262 2218 2192 2154 2166 2292 2291 2513 2552 2565 2455 2353 2140 1102 585 328 508 738 890 1065 906 899 1000 1052 1202 1284 1212 1200 1111 1103 1072 1052 915 829 765
1764 1569 1557 1818 1852 2027 2019 1935 1726 1603 1474 1278 1209 1147 1156 1189 964 1002 1078 893 1258 1221 1069 1067 1045 1237 1502 1636 1534 1478 1258 1191 1122 1182 1242 1005 788 654 671 765 814 963 1028 1313 1368 1238 1209 1409 1893 2040 2051 2016 2220 2341 2360 2424 2559 2468 2533 2465 2296 1842 1993 942 800 706 574 730 898 1014 1058 1075 1170 1349 1278 1260 1231 1169 1096 1048 1048 1010 936 842 682
1812 1673 1704 1748 1824 2118 2056 1881 1714 1591 1514 1334 1254 1126 1172 1163 1020 976 954 1050 1082 1138 1098 1223 1173 1424 1732 1706 1481 1438 1349 1172 1180 1429 1107 1005 900 732 712 693 672 662 1070 1399 1216 962 928 1425 1682 1919 2036 1947 1841 2078 2438 2489 2523 2542 2395 2014 1731 1743 1875 1015 760 538 624 957 1147 1056 1084 1179 1119 1240 1252 1226 1207 1131 1127 991 938 856 814 663 432
1905 1786 1686 1713 1837 1924 1889 1813 1745 1654 1530 1500 1434 1359 1325 1191 1076 764 677 848 1006 1044 1020 1128 1208 1582 1837 1563 1310 1399 1355 1198 1427 1479 1019 1198 1070 991 841 778 650 1066 1278 1322 1097 768 938 1258 1592 1940 1966 1837 1945 2140 2156 2300 2324 2194 1940 1580 1479 1330 1375 1073 1001 721 794 956 1268 1120 1112 1114 1316 1240 1240 1225 1214 1208 1095 939 827 815 658 399 264
1871 1711 1693 1734 1820 1842 1888 1849 1760 1715 1628 1604 1582 1456 1340 1267 1110 785 591 620 837 893 922 1040 1176 1541 1552 1259 1471 1489 1330 1085 1270 1482 1247 1065 1127 1024 929 789 803 874 1016 1129 898 871 808 1010 1612 1911 1833 1716 1824 2030 2059 2028 2037 1813 1592 1537 1503 1427 1313 1033 939 944 948 1103 1318 1266 1160 1256 1363 1382 1331 1237 1216 1123 1035 895 768 642 393 270 188
1869 1703 1724 1790 1810 1817 1823 1728 1706 1720 1684 1634 1608 1525 1406 1251 1116 851 602 591 760 908 712 785 891 1030 1140 1072 1282 1506 1279 1287 1500 1426 1093 1059 997 977 951 952 935 830 848 972 769 596 825 976 1352 1583 1898 1763 1676 1674 1812 1829 1757 1563 1468 1645 1759 1557 1545 1439 849 706 871 944 1153 1059 1115 1163 1378 1378 1340 1242 1153 907 857 762 810 485 296 190 130
1786 1673 1675 1768 1846 1842 1757 1589 1582 1500 1456 1520 1498 1449 1401 1287 1134 1013 726 718 710 737 723 741 769 882 974 1107 1122 1296 1285 1101 1274 1192 1140 1146 1013 902 872 959 858 760 727 898 580 726 940 1066 1170 1678 1765 1775 1672 1639 1583 1595 1594 1396 1680 1946 1733 1480 1540 1657 1223 1146 1364 1360 1065 1262 1199 1471 1435 1351 1347 1228 1182 1014 894 858 727 418 240 128 21
1720 1639 1588 1682 1698 1779 1663 1521 1418 1383 1469 1433 1503 1568 1460 1302 1242 1112 1022 775 851 785 612 636 626 757 854 957 1117 1314 1147 926 1088 1322 1223 1140 1068 946 925 923 801 698 724 778 706 597 764 1134 1182 1524 1923 1766 1642 1637 1586 1230 1527 1501 1705 1743 1573 1430 1531 1328 1485 1143 1142 1132 1126 1181 1284 1479 1371 1340 1333 1153 1156 984 869 722 503 268 90 0 0
1652 1542 1524 1459 1542 1744 1675 1365 1247 1356 1448 1450 1561 1553 1390 1453 1235 1267 1123 984 758 733 690 707 920 954 1025 1081 1203 1382 1167 904 1417 1416 1340 1172 1105 978 918 905 722 661 790 842 711 738 776 904 1130 1094 1568 1706 1628 1579 1465 1529 1471 1638 1568 1697 1777 1390 1150 1173 1358 1163 1184 1263 1148 1225 1454 1396 1359 1337 1198 1142 1069 889 756 429 154 15 0 0 0
1526 1496 1452 1414 1475 1632 1709 1340 1213 1314 1382 1500 1589 1559 1412 1585 1132 1451 1192 1067 879 772 775 919 972 1024 1200 1137 1571 1248 1123 1212 1349 1234 1274 1149 1080 945 887 852 714 644 777 836 605 664 814 934 568 1171 1636 1704 1680 1540 1415 1422 1620 1528 1672 1684 1270 663 902 1183 1127 1201 1163 1226 1259 1302 1488 1347 1285 1247 1160 894 642 498 416 121 10 0 0 0 0
1430 1488 1435 1446 1406 1617 1716 1515 1266 1179 1319 1401 1564 1608 1687 1394 1362 1376 1233 1125 1005 984 952 899 923 777 1095 1339 1441 1517 1201 1178 1182 1374 1158 1206 1088 958 904 826 768 672 784 843 687 681 788 856 836 666 1012 1670 1691 1434 1623 1676 1504 1717 1702 1491 641 669 962 1165 1052 1073 1112 1119 1306 1336 1406 1322 1204 1143 1112 982 793 416 107 7 0 0 0 0 0
1400 1455 1518 1425 1354 1519 1629 1642 1363 1151 1161 1273 1499 1582 1651 1506 1479 1391 1369 1378 1080 1158 884 1036 755 668 1025 1306 1386 1315 1234 1182 1140 1333 1209 1108 1161 1036 988 865 830 727 828 930 836 705 807 681 790 551 612 1501 1702 1285 890 1436 1377 1782 1509 882 787 852 1164 1142 958 1003 1079 1139 1181 1368 1310 1197 1135 1015 1068 964 560 155 34 0 0 0 0 0 0
1438 1479 1525 1381 1275 1401 1525 1747 1625 1276 1132 1182 1335 1610 1600 1478 1434 1376 1332 1178 1073 984 822 751 645 637 792 1163 1246 1198 1168 1203 1546 1621 1512 1204 1128 1196 994 899 821 882 734 1026 861 834 874 694 769 597 890 1053 1238 870 1050 883 787 882 780 620 676 804 1106 1329 1049 1047 1136 1303 1172 1316 1164 1119 1126 1068 850 447 193 68 0 0 0 0 0 0 1
1504 1504 1514 1407 1187 1266 1274 1687 1775 1440 1286 1200 1360 1566 1549 1329 1309 1310 1238 1070 1003 777 527 163 63 147 598 781 1034 1184 1020 1064 1248 1456 1318 1094 945 1020 824 678 577 502 817 585 673 642 700 504 238 593 639 457 33 34 963 762 752 543 536 622 596 1094 1310 1155 1052 1040 1081 1146 1184 1191 1117 1081 1012 875 530 282 111 20 0 0 0 0 1 2 1
1718 1542 1525 1458 1250 1229 1163 1408 1881 1721 1578 1408 1433 1439 1444 1272 1203 1267 1208 1034 904 599 330 119 2 2 2 110 48 924 1035 892 1175 1380 1299 1128 1019 957 799 369 191 570 652 492 470 116 352 127 0 2 2 3 0 0 714 727 455 300 529 622 700 1068 1264 894 946 960 989 1009 1111 1097 1056 962 848 595 381 170 60 0 0 0 0 1 1 2 2
1343 1622 1291 1456 1363 1298 1062 1191 1862 2011 1995 1658 1475 1385 1282 1330 1212 1249 1197 1117 948 754 542 296 1 0 0 2 1 0 290 776 904 1187 1339 1121 1028 881 733 256 193 291 435 153 399 114 38 1 0 0 0 0 0 0 0 534 681 209 376 810 1063 1092 1191 918 840 898 939 906 896 1044 956 825 638 467 249 104 10 0 0 0 1 1 0 1 2
1650 1736 1564 1456 1418 1530 1223 1106 1456 2029 2177 1938 1553 1395 1222 1348 1285 1271 1261 1199 1016 1016 798 560 94 0 0 0 0 0 0 24 135 1010 1331 1078 988 745 675 266 210 104 160 29 37 32 12 0 0 0 0 0 0 0 0 446 594 155 390 768 1056 1145 1136 981 826 829 830 798 861 996 872 672 467 294 142 42 0 0 0 0 1 1 0 0 0
1677 1684 1559 1492 1602 1730 1483 1299 1493 1841 2204 2157 1802 1464 1270 1338 1402 1363 1302 1422 1130 1168 1081 679 295 0 0 0 0 0 0 43 0 461 1089 1009 960 824 672 388 151 21 135 17 10 16 14 0 0 0 0 0 0 0 0 135 22 89 299 648 855 1042 1008 897 756 667 649 660 676 696 712 469 334 174 57 1 0 0 0 1 0 1 2 0 0
1306 1553 1559 1386 1515 1811 1715 1651 1750 1535 2059 2241 2050 1650 1279 1452 1524 1392 1459 1408 1224 1292 1203 879 599 7 0 0 5 0 0 26 0 0 26 767 906 795 692 341 68 1 128 20 1 3 17 0 0 0 0 0 0 0 0 4 7 147 249 530 635 910 978 933 644 555 530 559 568 469 504 303 177 122 8 0 0 0 2 2 1 2 1 0 0
1186 1226 1383 1301 1272 1540 1910 1866 2037 1642 2001 2286 2202 1879 1249 1609 1639 1608 1544 1446 1312 1401 1280 1064 764 344 21 0 70 96 0 10 3 0 0 52 527 698 642 321 6 1 124 52 0 0 15 23 0 0 0 0 0 20 0 6 45 144 383 388 412 755 888 744 501 432 370 372 342 307 297 133 62 33 6 0 0 0 0 0 0 0 0 0 0
1376 1219 1226 1208 1205 1241 1716 2034 2256 1906 2069 2330 2293 2038 1676 1764 1737 1754 1717 1403 1483 1473 1416 1150 870 532 246 96 371 167 43 42 60 11 0 8 142 261 537 93 13 8 192 68 0 0 14 159 9 0 0 41 13 58 27 76 264 396 366 296 318 489 637 587 418 355 44 26 169 23 13 12 12 4 0 0 0 0 0 0 0 0 0 0 0
1346 1355 1296 1178 1233 1220 1301 1693 2277 2132 2117 2357 2367 2284 1970 1955 1865 1826 1854 1642 1585 1564 1545 1261 952 594 430 318 344 359 272 332 286 162 84 13 146 305 748 604 494 228 335 552 424 0 15 113 18 126 2 640 887 804 613 370 487 555 419 349 368 360 487 508 387 248 14 10 0 0 0 0 0 0 0 0 0 0 0 0 0 0 0 0 0
1226 1375 1468 1281 1293 1349 1265 1585 2218 2218 2278 2258 2212 2283 2012 2083 1869 1942 1891 1818 1700 1642 1523 1156 680 599 562 427 386 384 472 508 1016 422 562 200 262 428 638 937 728 396 839 504 526 124 458 290 366 351 1452 1093 735 790 709 623 562 598 567 683 492 298 394 445 502 439 57 0 0 0 0 0 0 0 0 0 0 0 0 0 0 2 1 0 0
1307 1359 1422 1530 1300 1314 1230 1607 2245 2114 2314 2103 1977 2332 2004 2176 1921 1980 1902 1785 1785 1609 1309 844 539 391 276 394 514 331 535 659 1332 771 709 387 744 750 630 781 919 534 776 595 527 581 361 166 184 456 1166 1170 1069 908 834 862 789 684 721 887 852 674 531 403 518 520 280 0 0 0 0 0 0 0 0 0 0 0 0 0 0 1 0 0 0
1257 1280 1373 1547 1516 1375 1222 1629 2086 2163 2160 2008 1846 2261 1974 2082 1854 2048 1865 1860 1713 1526 1191 783 574 603 352 324 605 418 450 755 1231 1187 1051 706 957 965 760 710 858 588 594 626 562 517 79 298 450 411 685 1228 1355 1125 879 943 902 829 890 931 984 936 704 613 364 147 274 0 0 0 0 0 0 0 0 0 0 0 0 0 0 0 0 0 0
1345 1198 1400 1487 1326 1358 1494 1941 2233 2196 1970 2019 2030 1949 1837 2041 1786 1925 1789 1741 1631 1435 1232 757 514 785 563 410 636 501 468 700 1020 1179 1060 997 763 963 763 645 710 679 573 531 526 489 312 296 239 424 490 934 1330 1190 814 680 772 794 734 719 715 730 707 515 42 36 40 0 0 0 0 0 0 4 0 0 0 0 0 0 0 0 0 0 0
1410 1229 1233 1268 1425 1526 2109 2299 2351 2218 2034 2057 2089 1883 1730 1932 1834 1722 1804 1520 1530 1390 1242 969 651 544 813 642 687 620 476 598 881 1157 846 1061 780 788 726 588 533 445 543 298 410 766 195 189 448 801 1002 930 1023 1270 911 709 628 514 548 478 470 252 462 380 273 264 0 0 0 0 0 0 0 0 0 0 0 0 0 0 0 0 0 0 0
1412 1276 1517 1626 1721 2103 2670 2438 2376 2167 2049 2106 2032 1899 1729 1575 1793 1698 1535 1587 1429 1261 1259 914 816 690 770 738 759 691 602 597 761 1092 896 1001 905 642 316 647 525 504 1416 732 707 717 720 384 600 657 904 1024 951 1288 1109 745 686 633 500 335 149 213 147 182 136 2 0 0 0 0 0 0 0 0 0 0 0 0 0 0 0 0 0 0 0
1717 2059 2451 2255 2287 2391 2650 2460 2374 2216 2138 2106 1989 1894 1854 1728 1505 1614 1640 1557 1424 1368 1161 831 864 796 842 730 752 721 638 376 709 991 901 879 1253 606 604 1410 1049 904 1602 1486 784 653 821 986 737 758 867 1126 1302 1230 1115 786 624 560 441 150 195 205 153 76 64 0 0 0 0 0 0 0 0 0 0 0 0 0 0 0 0 0 0 0 0
2439 2768 2756 2622 2576 2552 2634 2474 2355 2260 2166 2063 1928 1802 1811 1678 1474 1607 1694 1561 1428 1249 980 787 750 719 875 754 727 682 638 310 727 923 821 1275 1610 1642 1715 1859 1753 1362 1388 1561 1155 1020 964 1110 854 924 1047 989 1269 1333 881 758 615 541 409 165 17 186 806 222 118 0 0 0 0 0 0 0 0 0 0 0 0 0 0 0 0 0 0 0 0
3165 3045 2847 2696 2626 2444 2568 2460 2312 2220 2146 2000 1834 1673 1628 1547 1414 1384 1669 1588 1422 1263 1126 1042 870 688 676 862 830 756 597 402 749 862 672 1270 1754 1898 1990 2162 2027 1874 1558 1579 1316 1394 1294 1227 1212 1206 1238 1107 1031 1268 906 671 602 476 254 102 11 0 121 0 35 86 0 0 0 0 0 0 0 0 0 0 0 0 0 0 0 0 0 0 0
3448 3222 2999 2818 2538 2357 2508 2435 2264 2205 2126 1980 1788 1637 1558 1500 1397 1277 1631 1650 1436 1316 1047 1144 1058 853 636 788 820 677 535 539 844 1136 1122 1356 1685 1966 1942 2278 2165 2008 1884 1894 1648 1634 1463 1351 1319 1370 1120 1070 887 1137 982 677 544 460 377 10 46 34 0 0 0 0 26 0 0 0 0 0 0 0 0 0 0 0 0 0 0 0 0 0 0
3613 3328 3044 2818 2506 2370 2390 2335 2263 2120 2010 1942 1780 1602 1529 1497 1406 1275 1331 1651 1552 1318 1027 1028 1117 970 849 748 697 607 491 386 1116 1062 1595 1637 1618 1910 2092 2130 2213 2079 1959 2011 1884 1695 1646 1590 1486 1275 929 864 796 965 940 691 584 482 395 10 0 0 7 0 0 0 5 4 0 0 0 0 0 0 0 0 0 0 0 0 0 0 0 0 0
3676 3407 3129 2877 2571 2413 2293 2306 2237 2088 1943 1924 1803 1602 1533 1495 1306 1237 1317 1336 1412 1226 1047 973 1129 1029 982 938 748 945 516 439 1148 1250 1349 1864 1727 1840 2084 2122 2212 2123 1900 1975 1992 1862 1778 1720 1604 1378 1102 716 696 695 781 665 586 455 22 22 18 26 0 0 0 0 1 14 0 0 0 0 0 0 0 0 0 0 0 0 0 0 0 0 0
3735 3472 3214 2918 2657 2476 2290 2214 2212 2018 1888 1876 1850 1636 1566 1496 1339 1265 1349 1429 1342 1231 1051 934 1035 1088 1037 1070 916 1205 773 663 975 1351 1272 1529 1771 1794 1984 2055 2154 2112 2026 1993 2032 1971 1865 1750 1512 1185 1007 720 677 612 746 595 678 473 142 8 0 17 7 0 0 4 0 0 0 0 0 0 0 0 0 0 0 0 0 0 0 0 0 0 0
3781 3542 3288 2978 2707 2460 2384 2149 2176 2061 1901 1809 1781 1728 1593 1538 1459 1234 1242 1406 1337 1238 1075 844 1064 1030 1038 954 1288 1198 1154 918 931 1201 1294 1310 1757 1767 1952 1960 1896 2004 2123 1991 2020 2049 1915 1781 1580 1312 994 841 726 689 686 638 718 569 380 194 524 219 24 0 0 0 16 0 0 0 0 0 0 0 0 0 0 0 0 0 0 0 0 0 0
3811 3654 3320 3049 2772 2498 2455 2206 2123 2117 1930 1783 1801 1756 1696 1608 1571 1375 1247 1337 1362 1311 1132 908 1164 1160 1006 1020 1483 1219 1290 1081 1064 1139 1202 1221 1630 1818 1837 2008 1875 1984 2089 2079 1975 2095 1999 1891 1599 1400 1196 932 772 634 661 648 645 687 686 281 323 628 135 1 0 0 0 0 0 0 0 0 0 0 0 0 0 0 0 0 0 0 0 0 0
3801 3680 3428 3171 2850 2555 2534 2349 2192 2164 2092 1881 1824 1806 1752 1702 1665 1535 1434 1251 1286 1370 1166 965 1305 1240 1124 1013 1056 1392 1303 1220 1122 1173 1102 1109 1544 1768 1812 1931 1941 2029 2066 2054 1992 2045 2073 1928 1662 1361 1189 1130 878 681 606 669 613 650 794 591 482 498 655 154 87 0 0 0 0 0 0 0 0 0 0 0 0 0 0 0 0 0 0 0 0
3770 3734 3596 3334 2946 2636 2578 2475 2305 2186 2187 2028 1910 1903 1862 1790 1745 1675 1569 1433 1126 1403 1258 1004 1451 1312 1223 1129 1056 1145 1403 1310 1163 1203 1153 1086 1263 1771 1843 1896 1977 2025 2062 2045 1951 2086 2185 2006 1868 1559 1316 1292 1129 895 672 554 609 658 803 780 668 745 702 495 166 28 10 0 0 0 0 0 0 0 0 0 0 0 0 0 0 0 0 0 0
3742 3779 3734 3509 3098 2764 2634 2533 2455 2298 2276 2192 2024 2002 1997 1872 1790 1760 1669 1578 1274 1333 1567 1203 1458 1536 1339 1220 1122 1024 1202 1401 1285 1101 1227 1187 1106 1587 1855 1912 1924 2058 2098 2044 1961 1964 2244 2177 2002 1756 1495 1405 1332 1112 936 692 645 718 725 707 714 762 734 629 469 18 10 0 0 0 0 0 0 0 0 0 0 0 0 0 0 0 0 0 0
Wind_Speed
13 19 14 16 15 15 15 15 15 15 16 16 17 19 20 19 18 17 17 18 18 17 17 17 17 17 16 17 18 18 18 17 17 15 14 13 13 12 12 12 11 11 12 12 12 12 12 12 12 12 13 13 13 13 13 12 12 12 13 14 14 14 15 16 17 17 18 18 17 18 16 16 17 17 18 18 18 18 17 16 13 11 11 15 20
20 16 14 14 17 16 16 17 18 17 17 17 18 19 21 20 19 18 18 18 17 18 17 17 17 17 17 16 17 18 17 17 16 15 14 13 13 13 12 12 12 12 12 12 12 11 11 12 12 12 13 13 13 13 12 12 12 12 12 13 14 15 15 15 16 17 18 18 18 19 18 18 17 18 18 18 17 17 17 17 16 11 11 18 20
20 16 14 16 19 18 17 19 20 20 19 18 18 19 20 21 19 19 19 19 18 17 17 17 17 17 17 16 17 17 17 17 16 16 14 13 12 12 12 12 12 12 12 12 12 11 11 11 12 13 13 13 12 12 12 11 11 11 11 12 13 13 15 15 16 18 19 19 19 19 19 19 18 17 18 18 18 18 18 18 18 16 14 20 18
22 16 15 18 21 18 18 19 20 21 20 18 18 18 19 20 20 19 19 20 19 18 17 17 17 17 16 16 16 16 17 17 17 16 14 13 12 12 12 12 12 12 13 12 12 11 11 11 12 12 13 13 13 12 12 11 10 10 11 11 12 13 13 13 15 16 17 20 18 15 9 9 13 17 18 18 18 18 18 20 20 20 20 20 21
22 18 16 15 16 18 19 19 21 22 22 20 20 19 19 19 20 18 17 18 18 18 17 17 17 17 16 16 16 15 16 18 18 17 15 13 12 12 13 12 13 13 13 13 12 11 11 11 11 11 12 13 13 12 12 11 10 9 9 11 11 12 12 12 13 15 12 12 16 13 12 11 11 17 18 18 18 19 19 20 21 21 21 22 22
23 19 17 16 16 18 21 20 21 23 22 21 20 20 20 19 19 18 16 17 18 17 17 17 17 16 16 16 16 16 15 18 19 18 16 14 13 13 13 13 13 14 13 13 12 12 11 11 11 11 11 12 12 12 12 12 11 9 8 8 10 10 12 15 13 14 9 7 7 8 10 12 13 14 20 20 21 20 20 21 22 22 22 23 23
27 20 19 17 16 19 23 23 23 22 22 21 20 19 19 19 18 16 16 16 17 16 16 16 16 15 15 15 16 16 15 17 19 19 17 15 14 13 13 14 14 14 14 13 12 11 11 11 11 11 10 11 12 12 12 12 11 10 8 7 7 9 15 13 11 8 7 6 10 11 14 14 14 15 21 22 21 23 22 21 22 23 24 24 24
24 21 20 18 17 21 25 24 23 22 20 20 19 18 18 18 17 16 15 15 16 16 15 15 15 14 14 14 15 16 16 16 18 19 19 16 14 14 14 14 14 14 14 13 12 11 11 10 10 10 10 10 11 12 13 12 12 10 8 7 6 10 14 12 9 7 10 8 11 13 15 15 15 17 21 21 23 25 24 23 23 24 25 26 25
24 23 21 20 20 27 26 24 24 23 21 20 19 19 19 17 17 16 15 14 15 15 14 14 13 13 13 14 15 16 16 17 18 19 19 17 15 14 13 14 13 13 13 12 11 10 10 10 10 9 10 10 10 11 12 12 12 10 9 6 7 9 12 12 10 10 7 8 10 13 17 16 15 17 22 24 25 26 24 22 22 25 27 27 26
24 23 22 20 21 27 27 26 26 25 24 24 23 21 19 17 17 16 16 15 15 15 14 13 13 12 12 13 14 15 16 17 17 18 19 17 16 15 14 13 13 13 13 12 12 11 11 10 10 9 9 9 9 10 11 12 12 10 8 7 9 9 10 8 9 8 9 9 5 14 15 18 15 17 23 26 26 27 26 26 24 24 24 27 27
25 23 23 22 24 28 28 28 28 28 29 29 27 23 19 18 18 18 17 15 15 15 14 13 12 12 11 12 12 14 15 16 16 18 19 18 17 16 15 13 13 13 13 12 12 11 10 10 9 9 9 8 9 10 11 12 13 11 8 6 9 11 10 8 8 8 9 9 9 12 16 19 13 15 24 26 27 26 27 27 27 26 27 27 26
25 24 23 22 27 30 29 29 29 29 28 24 23 20 18 18 18 18 17 16 14 16 15 13 12 11 12 11 11 12 14 15 15 17 19 18 18 17 16 14 13 12 12 11 11 10 9 9 8 9 8 8 9 10 12 12 12 12 9 7 7 9 12 12 8 9 9 9 6 9 11 11 12 18 24 25 25 26 26 26 26 27 27 27 27
26 24 24 23 24 29 30 29 29 30 25 21 20 20 18 18 19 19 18 18 15 13 14 12 10 10 11 11 11 11 13 14 15 15 17 18 18 17 16 16 14 14 13 12 10 10 9 9 9 9 9 9 9 11 11 12 12 12 11 8 7 7 8 13 11 10 11 10 4 8 12 12 13 21 23 24 25 25 25 25 25 26 27 28 27
27 25 24 24 22 30 31 29 29 29 24 22 22 22 21 20 19 18 19 17 17 14 12 13 11 10 13 11 11 10 11 13 14 15 18 18 17 17 17 16 16 14 13 11 11 10 10 10 10 10 10 11 11 11 12 11 12 13 12 11 9 7 11 12 12 11 11 9 7 11 14 13 14 22 23 24 25 24 24 24 25 26 27 28 26
29 26 25 24 24 24 32 31 30 29 26 22 22 23 22 21 20 19 19 19 16 14 14 14 12 12 14 13 12 11 11 12 13 16 19 18 17 17 17 16 16 15 13 12 12 11 10 10 10 11 11 12 12 12 12 11 12 13 12 11 11 10 12 13 13 11 10 9 10 15 16 15 20 23 24 24 24 25 24 24 24 27 28 27 26
29 28 26 24 23 24 26 31 33 31 27 24 22 23 22 20 20 20 20 19 17 16 15 14 13 15 15 14 13 12 11 13 12 15 19 19 17 17 17 17 16 15 13 12 12 11 11 10 10 11 11 12 13 13 13 12 13 13 11 11 10 10 15 14 12 11 10 9 12 13 16 17 24 25 26 25 25 25 24 24 26 28 27 27 26
29 27 26 25 23 23 25 27 30 33 28 25 21 20 20 19 20 20 20 20 18 16 16 15 14 16 16 14 14 13 13 13 12 16 19 18 18 17 16 17 17 15 14 12 12 12 12 11 11 11 12 12 12 13 13 12 13 12 10 10 10 10 12 13 12 10 11 11 13 15 17 18 23 26 27 26 26 24 24 25 27 27 27 26 26
28 27 25 25 24 24 25 27 30 28 24 23 21 20 20 21 22 20 20 19 17 17 17 16 15 16 17 14 14 14 14 15 15 19 19 18 18 18 18 17 17 16 15 13 13 13 13 13 12 12 12 13 12 12 12 11 12 12 11 10 10 11 11 9 9 9 10 12 14 15 16 21 25 25 26 26 26 25 24 25 27 27 27 26 nan
28 28 26 26 26 26 26 26 28 27 24 19 19 21 23 23 23 22 22 20 17 17 19 17 16 17 16 15 15 15 16 18 19 20 20 20 18 18 18 18 18 17 15 14 14 14 14 15 14 14 14 13 13 12 12 11 10 12 12 11 10 10 8 7 7 10 12 13 15 16 17 24 24 25 25 25 25 25 24 25 27 27 nan nan nan
31 30 28 26 27 27 26 27 28 27 24 22 21 22 24 25 24 24 24 22 19 18 20 20 18 17 16 16 16 15 16 17 22 18 21 21 20 16 18 18 19 19 16 15 14 14 15 16 16 15 15 15 14 13 12 11 11 12 13 10 9 8 7 6 8 11 14 15 17 17 21 24 25 25 25 25 25 24 24 25 26 nan nan nan nan
31 31 28 27 28 28 28 27 29 27 26 25 23 23 23 25 23 23 25 24 21 21 21 21 18 16 15 15 14 14 13 14 16 15 19 16 19 19 19 20 20 20 19 15 14 15 15 16 17 17 16 16 15 14 13 12 12 13 14 12 8 6 7 6 9 13 14 15 17 19 24 24 24 24 25 24 23 22 24 25 nan nan nan nan nan
31 30 29 28 28 28 28 28 29 28 27 26 25 23 22 22 21 19 20 20 19 19 18 15 16 12 16 14 12 12 14 15 15 17 14 16 17 20 20 21 21 21 20 17 15 14 15 16 17 18 18 17 16 13 12 13 14 14 15 13 8 8 8 7 9 13 14 15 16 21 25 23 23 23 24 23 23 23 24 nan nan nan nan nan nan
31 31 29 27 28 28 27 28 28 27 28 26 25 23 22 20 18 19 19 19 17 16 14 15 14 13 13 13 12 12 14 14 14 15 14 18 17 21 21 22 22 22 21 18 16 15 15 16 17 18 19 18 15 14 14 13 12 15 14 12 11 9 7 8 13 13 14 14 16 23 23 23 23 23 23 23 23 24 nan nan nan nan nan nan nan
33 31 29 28 28 27 27 26 26 26 26 24 23 22 21 19 17 17 18 18 16 15 14 13 13 12 12 12 12 12 12 13 15 21 19 14 14 20 21 22 23 23 22 18 17 15 15 15 17 18 19 17 15 16 15 13 14 12 13 12 11 10 8 11 15 15 15 16 16 24 23 23 24 24 23 23 23 nan nan nan nan nan nan nan nan
38 38 32 29 27 27 26 25 24 23 21 20 20 18 18 17 16 16 17 17 16 14 12 12 nan 11 11 10 11 11 12 11 11 12 13 13 13 13 15 16 16 17 20 16 16 16 16 16 17 18 18 18 nan nan 15 14 13 14 15 13 13 11 10 13 14 14 16 16 17 24 24 24 24 25 23 23 24 nan nan nan nan nan nan nan nan
44 38 30 27 24 25 23 22 21 18 15 16 17 15 15 15 14 14 15 15 15 13 11 10 nan nan nan 9 nan 10 12 11 11 12 13 15 14 14 15 16 16 16 17 17 17 17 18 18 nan nan nan nan nan nan 15 14 16 13 15 15 13 12 11 14 14 15 16 17 19 25 24 25 25 24 23 23 nan nan nan nan nan nan nan nan nan
32 32 27 26 24 23 20 19 19 15 13 15 15 13 13 14 13 14 14 12 11 10 8 7 nan nan nan nan nan nan 10 11 12 12 14 15 16 16 16 16 16 17 17 18 17 17 nan nan nan nan nan nan nan nan nan 15 16 17 13 14 13 12 11 14 15 17 17 18 21 26 26 25 25 24 23 24 nan nan nan nan nan nan nan nan nan
32 28 27 27 27 22 20 18 18 15 14 14 13 12 12 13 13 13 12 10 7 4 4 4 nan nan nan nan nan nan nan nan 12 13 13 15 17 17 16 16 16 16 18 nan nan nan nan nan nan nan nan nan nan nan nan 17 17 16 15 14 14 13 12 15 17 18 18 18 20 25 27 25 26 24 24 nan nan nan nan nan nan nan nan nan nan
36 36 37 35 29 26 22 19 18 14 15 14 13 11 10 12 13 13 11 8 5 2 3 3 4 nan nan nan nan nan nan nan nan 12 13 15 16 16 16 16 16 nan 18 nan nan nan nan nan nan nan nan nan nan nan nan 18 nan nan 15 16 17 16 14 15 18 18 18 19 20 23 28 27 25 25 nan nan nan nan nan nan nan nan nan nan nan
37 37 37 37 37 28 23 18 18 14 15 13 13 11 8 11 13 12 11 7 5 3 3 3 3 nan nan nan nan nan nan nan nan nan nan 14 15 15 16 17 nan nan 18 nan nan nan nan nan nan nan nan nan nan nan nan nan nan 16 16 16 17 17 14 16 19 19 19 20 20 21 27 26 25 23 nan nan nan nan nan nan nan nan nan nan nan
35 35 34 33 35 35 26 20 17 14 16 12 12 10 8 10 12 11 10 7 6 4 4 2 3 4 nan nan nan nan nan nan nan nan nan nan 13 14 15 16 nan nan 18 nan nan nan nan nan nan nan nan nan nan nan nan nan nan 19 18 19 18 16 15 15 19 20 20 20 19 18 21 25 nan nan nan nan nan nan nan nan nan nan nan nan nan
36 32 32 32 32 30 34 20 17 15 16 14 14 10 8 9 11 10 9 7 6 4 3 3 3 4 5 nan 6 8 nan nan nan nan nan nan 12 13 14 nan nan nan 19 nan nan nan nan 21 nan nan nan nan nan nan nan nan 20 21 21 21 19 18 16 16 19 22 nan nan 20 nan nan nan nan nan nan nan nan nan nan nan nan nan nan nan nan
31 31 33 33 30 29 32 23 18 17 15 15 15 12 10 10 10 10 9 8 5 4 4 4 4 5 6 6 7 8 8 9 9 10 nan nan 11 12 14 16 18 18 21 23 24 nan nan 20 nan 17 nan 19 19 19 18 19 21 22 22 22 20 20 19 17 19 22 nan nan nan nan nan nan nan nan nan nan nan nan nan nan nan nan nan nan nan
29 20 26 31 34 33 31 26 19 16 15 16 17 13 11 13 11 11 9 7 5 4 4 5 5 6 6 7 7 7 8 8 8 8 10 11 11 12 13 15 17 19 22 23 24 23 23 21 19 19 19 18 20 21 22 20 19 20 21 22 21 21 19 18 18 20 nan nan nan nan nan nan nan nan nan nan nan nan nan nan nan nan nan nan nan
34 22 21 28 36 33 30 27 19 16 15 16 17 14 15 16 13 13 11 8 7 5 5 6 5 5 6 7 7 7 8 7 7 9 10 10 11 12 15 16 17 19 21 24 25 23 23 21 22 21 19 19 20 22 23 22 21 21 19 20 22 22 20 19 17 18 20 nan nan nan nan nan nan nan nan nan nan nan nan nan nan nan nan nan nan
41 35 29 32 28 28 23 19 16 15 15 16 18 18 16 17 17 15 13 11 7 5 6 6 6 6 6 6 7 8 7 7 7 8 10 11 13 14 17 18 19 21 22 23 23 23 nan 23 21 23 23 21 22 22 22 23 21 22 19 19 21 22 21 19 18 17 18 nan nan nan nan nan nan nan nan nan nan nan nan nan nan nan nan nan nan
41 42 35 34 27 22 16 8 11 13 15 17 19 21 19 18 18 16 13 11 8 5 6 6 6 7 6 7 7 8 7 7 7 7 10 12 14 16 17 20 21 23 24 24 24 21 23 25 20 20 24 23 23 22 21 22 21 20 20 19 19 19 19 18 nan nan nan nan nan nan nan nan nan nan nan nan nan nan nan nan nan nan nan nan nan
37 39 35 35 28 20 14 11 13 13 16 17 20 20 20 20 19 17 14 10 8 6 5 6 6 8 8 7 8 8 8 8 8 8 10 12 14 17 18 21 22 24 25 25 24 23 25 25 22 20 23 23 22 23 22 21 21 21 19 19 19 19 18 17 16 16 nan nan nan nan nan nan nan nan nan nan nan nan nan nan nan nan nan nan nan
34 35 33 35 36 31 24 16 12 13 17 19 21 21 21 23 21 20 13 11 9 7 6 7 6 8 8 8 10 9 8 8 9 10 11 12 15 17 19 20 23 25 26 26 25 24 25 26 24 22 21 21 23 22 23 22 21 20 20 19 19 18 17 17 18 nan nan nan nan nan nan nan nan nan nan nan nan nan nan nan nan nan nan nan nan
32 31 34 37 39 39 31 22 16 15 19 21 22 22 23 23 21 23 15 12 10 8 7 7 7 7 8 9 9 10 9 9 10 11 13 13 15 17 20 21 24 26 28 28 26 24 26 28 26 24 24 20 19 20 21 21 19 19 19 17 16 16 17 nan nan nan nan nan nan nan nan nan nan nan nan nan nan nan nan nan nan nan nan nan nan
32 31 35 37 38 38 36 31 29 26 23 22 21 21 22 24 24 23 19 16 13 10 8 8 7 6 9 9 8 10 11 10 10 12 13 13 15 17 20 21 24 26 29 30 30 27 25 27 27 23 25 23 20 19 20 21 21 17 16 17 nan 16 16 17 15 nan nan nan nan nan nan nan nan nan nan nan nan nan nan nan nan nan nan nan nan
37 35 35 37 36 37 36 37 39 34 26 23 23 22 23 24 24 25 25 22 18 13 10 10 8 5 8 9 8 9 12 11 10 12 14 14 15 17 19 21 23 26 28 29 31 29 28 27 27 25 22 25 22 21 21 21 17 21 22 18 nan nan 16 nan nan nan nan nan nan nan nan nan nan nan nan nan nan nan nan nan nan nan nan nan nan
42 37 34 36 37 39 38 40 40 37 31 28 27 24 25 29 29 30 30 28 24 19 15 14 10 5 7 8 9 8 11 11 10 11 13 14 15 18 19 20 22 25 27 28 31 32 31 30 29 28 25 21 20 19 20 18 20 19 19 nan nan nan nan nan nan nan nan nan nan nan nan nan nan nan nan nan nan nan nan nan nan nan nan nan nan
41 37 36 37 38 38 39 39 37 37 37 33 29 28 28 32 34 33 34 31 28 24 19 17 13 7 5 8 9 8 9 11 12 12 13 15 17 19 19 20 22 24 27 28 31 34 32 30 29 27 27 25 21 19 17 17 19 24 20 nan nan nan nan nan nan nan nan nan nan nan nan nan nan nan nan nan nan nan nan nan nan nan nan nan nan
39 36 36 40 39 36 38 38 37 38 40 39 36 35 34 34 35 35 36 34 33 27 21 16 15 10 8 8 8 9 8 10 12 14 14 17 18 20 21 20 22 23 26 27 30 34 34 31 30 29 28 28 24 20 18 18 18 18 nan nan nan nan nan nan nan nan nan nan nan nan nan nan nan nan nan nan nan nan nan nan nan nan nan nan nan
41 38 36 38 40 37 37 39 39 39 42 43 42 40 36 35 34 31 32 31 29 27 21 17 18 15 11 12 8 8 8 9 11 13 16 18 19 21 21 21 22 23 26 27 28 31 32 31 29 29 28 26 28 24 22 19 19 18 16 nan nan nan nan nan nan nan nan nan nan nan nan nan nan nan nan nan nan nan nan nan nan nan nan nan nan
42 42 39 38 38 39 38 40 40 39 41 44 43 41 40 37 32 29 29 31 30 28 27 26 25 22 19 14 9 7 9 10 11 14 16 18 20 21 22 22 22 23 25 26 28 31 32 31 29 27 27 27 26 25 24 23 19 17 17 16 17 17 nan nan nan nan nan nan nan nan nan nan nan nan nan nan nan nan nan nan nan nan nan nan nan
41 44 43 40 37 36 36 38 42 41 40 42 42 41 40 37 34 30 29 32 32 32 29 28 30 27 24 18 15 9 10 11 14 16 18 20 21 21 22 22 23 23 25 26 28 29 30 30 30 28 27 27 29 27 25 23 25 21 21 19 16 17 22 nan nan nan nan nan nan nan nan nan nan nan nan nan nan nan nan nan nan nan nan nan nan
42 42 43 43 39 34 32 35 39 41 40 41 41 41 41 39 35 33 31 31 35 38 34 31 31 31 28 23 19 15 13 14 16 19 21 22 22 22 22 22 22 23 24 26 27 29 31 31 30 28 27 27 28 27 26 25 24 24 24 20 19 18 19 20 nan nan nan nan nan nan nan nan nan nan nan nan nan nan nan nan nan nan nan nan nan
41 41 40 44 43 38 34 34 38 42 42 41 40 40 40 40 38 35 32 33 36 40 39 32 32 33 30 25 21 20 17 16 18 21 22 24 24 23 22 22 22 22 24 27 27 28 29 30 31 30 29 29 26 28 28 27 26 25 25 25 23 21 20 19 20 nan nan nan nan nan nan nan nan nan nan nan nan nan nan nan nan nan nan nan nan
42 43 40 41 45 45 42 39 38 42 45 43 41 42 42 41 39 36 35 36 36 38 40 34 32 33 30 27 24 22 20 19 20 20 21 23 24 23 21 22 22 21 23 26 27 28 29 30 29 30 29 30 28 28 27 28 28 26 25 25 24 25 25 25 23 nan nan nan nan nan nan nan nan nan nan nan nan nan nan nan nan nan nan nan nan
Wind_Direction
315 309 312 317 316 310 305 301 300 301 304 307 313 317 318 320 322 322 322 319 320 321 321 320 318 317 314 309 308 305 304 304 307 311 318 326 330 332 333 329 327 324 319 316 315 311 311 311 312 313 313 312 309 305 301 297 293 289 286 280 276 268 264 263 263 260 258 258 257 258 259 257 258 262 267 270 274 280 284 286 290 301 309 293 285
319 310 310 311 312 306 303 302 301 299 300 304 308 314 317 317 319 324 322 319 321 321 322 322 322 321 319 315 311 309 309 310 311 316 323 331 336 337 338 336 333 330 325 321 319 316 316 316 317 318 318 317 316 312 308 304 301 297 289 284 278 272 265 261 262 264 261 257 255 256 257 258 260 264 268 274 280 282 284 287 289 310 312 288 285
302 305 305 308 308 304 303 304 302 300 298 301 305 310 315 315 316 321 321 319 319 321 322 322 325 325 322 320 315 314 314 315 317 320 326 335 341 342 342 341 339 335 331 326 324 322 322 322 321 322 322 321 321 319 314 311 307 301 295 287 282 278 275 273 271 272 270 262 255 251 252 257 259 265 272 277 280 284 286 288 290 291 301 286 288
302 304 302 306 306 303 304 303 302 299 299 299 304 309 313 314 314 318 319 318 319 320 322 324 325 327 325 322 320 320 320 317 319 322 329 339 346 347 346 347 344 339 336 331 329 329 326 325 325 325 325 324 325 325 321 318 312 307 299 292 286 279 278 275 278 277 275 268 265 263 260 262 266 267 271 276 282 284 289 292 292 289 285 287 287
299 300 299 299 299 302 304 302 303 300 298 301 306 311 312 313 312 313 314 314 315 319 322 323 327 328 328 325 324 324 325 322 319 323 332 343 349 350 352 350 347 344 340 337 336 334 330 327 326 326 326 325 326 328 328 323 317 312 304 296 288 282 276 271 263 250 252 252 259 267 276 274 278 276 277 275 276 280 284 291 288 286 285 285 287
300 299 296 296 296 299 303 301 301 299 298 302 308 312 314 313 311 310 310 311 312 316 320 323 327 330 330 328 327 326 328 325 321 324 331 342 350 351 353 351 348 346 344 342 339 336 334 329 329 329 329 328 327 326 326 325 323 321 312 304 296 287 269 251 243 266 270 289 283 277 279 279 281 277 273 280 283 279 276 278 284 288 288 287 288
298 296 295 294 293 298 302 302 300 298 299 303 310 315 319 316 313 312 313 313 312 312 317 323 327 330 330 330 328 328 329 327 322 323 330 340 347 352 352 352 349 348 346 345 343 340 338 333 330 332 334 331 328 327 327 327 326 326 326 318 307 283 261 256 248 226 218 262 295 289 283 280 280 279 278 280 281 282 278 276 279 284 287 288 290
293 293 294 293 292 299 302 301 298 297 298 306 315 319 322 321 317 317 315 314 310 311 316 322 325 327 329 330 330 327 329 326 324 323 327 336 342 349 350 352 351 349 348 348 347 346 342 337 334 335 338 336 333 329 328 331 332 333 335 334 309 271 269 268 252 217 209 247 256 285 281 276 276 277 273 276 277 275 276 278 281 283 285 287 291
291 292 290 292 294 302 300 299 297 296 298 306 316 321 323 326 323 320 319 314 308 310 314 320 322 325 329 330 330 328 328 328 324 323 326 331 338 343 352 352 352 349 347 347 347 347 347 346 343 341 343 341 338 336 332 333 338 340 341 337 289 274 275 274 273 253 255 254 246 284 282 284 279 277 274 274 275 276 278 281 281 281 283 286 289
289 286 288 290 295 301 299 299 296 297 298 302 308 315 319 325 323 320 321 317 310 308 312 317 320 322 328 331 330 329 328 329 325 323 322 325 333 340 346 352 350 349 346 346 349 352 354 352 350 347 347 346 342 340 342 342 343 342 345 321 292 283 281 292 279 286 281 268 266 284 276 277 281 282 279 278 278 277 278 280 284 285 286 284 286
287 285 287 289 297 300 299 299 297 299 303 302 302 306 313 319 325 326 324 322 314 310 311 314 317 319 323 330 330 329 328 327 328 322 319 323 331 337 341 346 349 351 346 349 352 354 354 354 353 349 349 348 345 348 352 350 346 338 331 317 304 305 306 302 291 306 305 301 290 278 275 278 283 286 284 282 281 280 280 281 282 283 285 286 286
284 282 287 289 298 300 300 299 298 301 309 309 306 309 314 319 325 328 326 323 317 313 313 310 315 319 318 328 332 330 327 327 327 323 319 323 328 334 335 337 346 348 347 349 350 349 353 355 352 351 350 346 345 349 355 353 343 327 320 321 320 319 321 310 313 304 301 292 291 293 289 298 300 295 289 287 285 284 284 284 284 286 287 287 286
280 281 284 288 291 299 298 299 299 301 309 315 313 313 314 318 324 328 330 326 321 315 313 310 307 310 317 325 332 331 326 326 328 322 317 322 327 329 331 335 340 342 345 342 340 347 351 353 352 348 348 345 343 347 354 353 333 317 319 331 331 327 328 317 328 318 312 303 296 302 305 311 311 296 293 291 290 289 289 287 286 286 287 287 289
276 278 281 284 284 296 296 295 296 298 301 307 308 307 310 314 318 324 330 329 323 314 309 302 306 306 313 319 329 326 323 324 324 315 318 319 324 326 329 333 336 338 335 333 339 346 351 352 350 346 344 343 344 346 352 350 325 318 323 331 334 327 328 321 318 318 313 303 290 304 314 319 317 302 299 297 295 293 290 290 290 290 290 291 293
274 277 279 279 283 286 294 292 292 292 295 299 300 296 301 307 312 320 325 326 322 313 305 301 307 303 312 318 322 323 320 320 318 316 314 313 316 319 323 327 332 328 327 334 341 345 350 349 347 342 340 340 341 344 349 349 324 320 331 329 334 333 320 331 330 324 316 306 302 305 314 323 314 307 302 299 298 296 296 296 295 294 294 295 296
269 275 276 275 278 280 281 290 291 291 293 300 302 298 299 303 308 316 321 322 321 314 306 300 298 299 306 313 317 317 318 316 314 313 310 316 315 318 320 324 329 336 335 335 340 343 347 348 344 341 338 338 342 343 346 349 325 325 335 333 329 318 313 326 329 330 331 312 303 309 314 320 312 308 306 305 301 301 301 300 299 297 298 299 298
268 266 271 272 273 271 274 278 283 292 292 299 304 295 296 300 304 311 317 318 319 314 306 298 295 297 298 304 310 314 316 310 310 306 310 312 316 314 318 321 324 330 336 340 337 342 343 343 342 339 337 337 342 346 348 348 326 324 331 327 324 321 323 328 332 339 335 335 323 319 322 324 316 310 309 308 306 305 305 304 301 302 302 301 299
265 266 267 268 265 263 265 271 279 280 282 295 295 286 288 294 299 303 308 309 310 309 305 299 295 294 299 301 308 311 312 311 308 306 309 310 313 315 319 322 324 330 337 338 339 339 338 336 339 337 339 340 344 347 349 349 327 325 333 333 322 317 316 325 342 353 336 316 317 319 324 321 313 311 310 310 308 307 305 305 305 305 304 302 nan
261 262 262 263 260 259 261 264 269 271 275 276 270 274 284 291 296 299 301 304 303 307 308 306 303 299 302 304 307 310 311 311 310 307 310 312 312 318 321 325 326 331 335 339 339 339 335 334 335 339 339 341 344 350 351 346 334 328 324 329 327 319 315 336 347 328 321 323 322 323 325 317 315 313 311 309 307 305 303 303 303 304 nan nan nan
260 258 254 253 253 255 256 259 263 267 268 270 269 264 278 287 294 297 300 302 304 303 306 307 305 302 303 305 309 306 308 307 312 308 312 315 316 316 326 327 329 331 335 339 342 336 336 334 334 336 340 341 346 352 357 348 336 331 326 329 331 327 345 346 343 328 323 326 322 320 319 317 317 316 313 310 306 304 305 305 306 nan nan nan nan
256 253 249 249 252 252 255 256 260 265 267 268 267 264 270 284 286 290 297 303 304 303 301 304 305 306 303 306 304 295 289 292 303 302 314 311 318 323 328 330 332 331 336 339 339 338 334 334 335 335 338 340 346 356 1 354 336 332 329 323 324 350 353 340 323 325 323 324 321 320 318 320 320 318 314 311 310 309 310 309 nan nan nan nan nan
257 251 247 246 249 251 256 256 259 265 266 265 263 260 261 273 267 270 274 288 296 297 293 285 294 284 306 295 282 287 285 289 293 305 301 311 319 329 332 334 332 335 334 336 337 336 336 335 336 338 338 340 348 1 10 0 345 333 330 325 342 353 348 336 324 320 323 324 322 322 319 322 321 319 316 314 311 310 311 nan nan nan nan nan nan
253 250 246 251 247 250 254 258 262 265 268 262 259 258 262 258 263 263 266 279 282 281 277 284 278 282 281 283 283 279 284 288 293 301 300 318 324 332 336 336 337 336 334 334 335 337 338 340 340 339 339 343 350 6 16 7 354 336 329 336 340 346 342 325 321 323 327 328 326 323 323 324 323 321 316 313 312 312 nan nan nan nan nan nan nan
243 241 242 243 247 249 254 258 265 266 263 257 253 255 255 253 250 254 261 269 273 274 278 280 283 284 286 285 284 286 288 289 309 321 320 313 325 333 337 338 338 336 336 333 334 335 341 344 343 343 337 342 348 10 19 6 351 341 333 340 330 331 332 331 325 328 331 330 331 326 326 325 322 322 319 316 315 nan nan nan nan nan nan nan nan
227 223 224 228 239 244 248 251 257 259 257 251 248 246 248 250 248 252 261 268 272 276 276 279 nan 291 286 288 290 289 291 292 297 297 297 306 311 314 324 328 328 330 334 325 328 330 336 339 339 341 339 345 nan nan 19 2 342 344 340 339 330 323 336 328 329 331 331 333 336 328 326 325 325 321 318 317 314 nan nan nan nan nan nan nan nan
208 215 211 216 229 236 241 241 247 248 244 237 237 241 250 251 254 258 265 266 275 280 279 280 nan nan nan 297 nan 292 290 295 292 296 295 303 310 312 318 325 327 330 330 330 332 332 334 342 nan nan nan nan nan nan 17 349 340 351 345 335 329 328 335 328 328 329 332 335 333 325 325 325 324 320 319 317 nan nan nan nan nan nan nan nan nan
226 206 210 209 218 229 234 232 233 231 227 229 229 235 248 256 263 267 271 271 271 276 285 283 nan nan nan nan nan nan 291 289 294 299 299 308 313 318 322 328 333 334 332 333 335 335 nan nan nan nan nan nan nan nan nan 339 342 346 345 335 332 334 330 328 328 330 333 332 330 325 327 325 323 322 320 318 nan nan nan nan nan nan nan nan nan
225 216 221 212 209 217 221 225 222 221 218 226 233 237 249 265 274 279 280 286 278 269 275 293 nan nan nan nan nan nan nan nan 299 305 308 313 319 324 328 331 337 338 336 nan nan nan nan nan nan nan nan nan nan nan nan 339 345 339 339 334 335 332 325 325 328 331 334 331 330 330 329 326 324 325 322 nan nan nan nan nan nan nan nan nan nan
219 219 216 208 209 205 205 214 217 221 222 227 233 239 253 264 273 276 279 283 273 267 268 295 282 nan nan nan nan nan nan nan nan 315 315 320 323 327 333 337 340 nan 336 nan nan nan nan nan nan nan nan nan nan nan nan 337 nan nan 340 337 334 335 332 327 327 331 335 332 332 332 329 326 325 325 nan nan nan nan nan nan nan nan nan nan nan
234 224 217 212 200 199 197 203 213 218 225 233 232 242 261 262 273 276 269 274 270 282 266 282 272 nan nan nan nan nan nan nan nan nan nan 323 330 332 339 342 nan nan 339 nan nan nan nan nan nan nan nan nan nan nan nan nan nan 332 341 337 333 336 336 329 326 330 333 330 333 333 330 327 325 326 nan nan nan nan nan nan nan nan nan nan nan
258 245 230 219 215 189 191 196 208 215 222 236 235 242 258 254 271 272 259 259 270 274 267 281 275 318 nan nan nan nan nan nan nan nan nan nan 330 334 342 346 nan nan 345 nan nan nan nan nan nan nan nan nan nan nan nan nan nan 334 335 335 335 333 333 331 325 328 331 330 327 328 330 325 nan nan nan nan nan nan nan nan nan nan nan nan nan
262 254 244 233 222 208 181 190 203 210 219 232 231 236 246 248 267 267 254 257 264 262 263 283 306 320 336 nan 320 325 nan nan nan nan nan nan 335 342 347 nan nan nan 349 nan nan nan nan 357 nan nan nan nan nan nan nan nan 331 330 332 335 335 332 333 333 330 329 nan nan 327 nan nan nan nan nan nan nan nan nan nan nan nan nan nan nan nan
253 255 257 247 235 220 193 177 202 208 217 227 228 226 229 235 254 258 248 254 256 256 261 284 313 307 320 320 309 313 317 312 319 331 nan nan 346 349 346 351 357 348 345 346 351 nan nan 353 nan 335 nan 318 309 313 320 327 326 329 329 331 332 333 334 334 333 327 nan nan nan nan nan nan nan nan nan nan nan nan nan nan nan nan nan nan nan
260 250 258 245 232 223 207 187 195 211 220 226 225 225 222 223 236 240 242 253 244 252 249 272 287 298 304 308 303 312 312 312 315 335 329 335 345 347 341 339 340 338 334 338 347 351 350 337 332 315 318 316 319 318 320 321 325 325 326 328 329 332 332 336 337 329 nan nan nan nan nan nan nan nan nan nan nan nan nan nan nan nan nan nan nan
256 250 273 250 234 222 208 188 192 212 222 232 228 226 223 219 225 228 232 239 235 243 252 264 276 289 295 298 301 306 308 313 312 332 331 331 334 336 336 336 334 329 329 334 343 349 341 331 322 322 319 318 318 321 320 321 326 327 329 328 329 330 332 337 338 332 325 nan nan nan nan nan nan nan nan nan nan nan nan nan nan nan nan nan nan
271 268 272 277 255 225 205 188 191 219 226 235 231 227 227 220 219 221 222 225 232 242 252 268 277 283 287 289 294 301 307 306 310 324 321 327 325 331 333 330 331 326 331 333 336 344 nan 320 325 328 320 318 318 319 319 321 323 326 326 329 330 331 330 335 336 335 324 nan nan nan nan nan nan nan nan nan nan nan nan nan nan nan nan nan nan
280 275 272 276 257 224 217 214 209 228 231 237 234 226 229 224 220 222 221 223 234 242 247 263 278 279 290 291 291 300 306 305 306 320 318 319 324 329 333 329 330 328 332 335 336 335 330 325 327 330 324 324 320 321 321 322 324 324 326 326 331 330 330 332 nan nan nan nan nan nan nan nan nan nan nan nan nan nan nan nan nan nan nan nan nan
278 280 273 270 255 240 253 253 225 234 234 239 237 231 227 223 221 223 220 225 228 235 243 257 271 274 285 294 300 300 311 310 306 318 320 315 322 329 331 331 328 329 331 335 333 332 325 324 328 330 325 324 324 324 326 324 322 324 325 328 329 329 333 334 338 332 nan nan nan nan nan nan nan nan nan nan nan nan nan nan nan nan nan nan nan
271 276 273 266 260 259 251 248 244 238 238 240 239 233 227 221 220 224 229 224 224 228 234 246 259 266 283 296 304 304 314 311 309 315 317 317 320 329 329 329 328 329 329 333 331 338 331 326 331 331 326 325 328 329 326 324 322 323 325 327 326 331 333 334 328 nan nan nan nan nan nan nan nan nan nan nan nan nan nan nan nan nan nan nan nan
269 271 275 272 272 267 254 258 272 263 247 242 242 236 228 224 223 224 233 229 229 230 223 241 251 263 280 298 308 304 309 310 307 311 313 320 320 328 328 326 327 329 330 330 331 334 333 330 334 332 326 322 325 325 320 316 315 318 321 319 324 330 333 nan nan nan nan nan nan nan nan nan nan nan nan nan nan nan nan nan nan nan nan nan nan
267 266 271 273 273 269 259 265 276 274 259 249 248 246 235 228 223 225 234 234 231 233 227 233 248 258 271 295 307 302 309 312 306 307 315 321 320 317 320 326 327 330 333 333 336 337 334 335 333 332 329 326 329 329 324 318 316 311 309 314 nan 319 316 318 319 nan nan nan nan nan nan nan nan nan nan nan nan nan nan nan nan nan nan nan nan
266 262 266 272 269 266 265 264 270 274 266 259 255 251 241 238 234 230 234 236 235 236 234 234 242 252 264 292 303 302 309 310 309 305 315 319 315 313 317 324 327 330 333 331 335 337 337 337 334 333 335 330 331 333 330 318 319 322 318 315 nan nan 314 nan nan nan nan nan nan nan nan nan nan nan nan nan nan nan nan nan nan nan nan nan nan
270 270 267 267 265 264 263 265 270 271 266 258 250 250 243 237 236 231 235 234 232 235 240 242 247 256 254 286 298 302 307 304 310 305 312 316 314 310 317 321 326 327 328 330 332 337 339 339 338 335 334 330 327 333 334 330 319 312 310 nan nan nan nan nan nan nan nan nan nan nan nan nan nan nan nan nan nan nan nan nan nan nan nan nan nan
257 258 254 253 253 259 262 267 268 266 263 261 256 252 247 239 236 235 234 239 237 237 242 245 253 249 241 275 285 298 306 303 305 309 303 311 313 311 314 319 324 326 327 329 331 337 337 337 337 336 333 332 333 337 333 328 317 316 318 nan nan nan nan nan nan nan nan nan nan nan nan nan nan nan nan nan nan nan nan nan nan nan nan nan nan
258 262 260 257 250 256 264 270 268 266 263 263 263 258 253 244 241 238 236 240 239 241 240 241 249 250 237 250 276 290 307 309 304 312 309 306 308 307 311 318 321 324 326 328 329 336 338 337 338 336 339 336 338 330 333 329 326 331 nan nan nan nan nan nan nan nan nan nan nan nan nan nan nan nan nan nan nan nan nan nan nan nan nan nan nan
263 265 264 263 263 261 260 260 260 261 261 264 264 263 263 258 252 251 249 246 247 246 245 244 244 248 243 233 265 288 309 314 314 310 314 302 306 307 308 315 322 324 327 328 327 330 335 335 340 338 338 338 336 330 331 331 330 337 332 nan nan nan nan nan nan nan nan nan nan nan nan nan nan nan nan nan nan nan nan nan nan nan nan nan nan
263 263 262 263 267 269 265 260 259 260 260 262 263 261 266 264 263 263 260 256 251 242 240 237 239 242 242 243 256 277 308 321 322 318 312 307 304 306 307 314 320 325 325 326 328 330 334 336 336 338 338 333 330 334 334 333 327 334 335 335 322 315 nan nan nan nan nan nan nan nan nan nan nan nan nan nan nan nan nan nan nan nan nan nan nan
265 262 263 261 268 273 268 259 254 256 258 259 262 263 268 269 264 262 264 263 255 245 245 242 241 249 254 253 250 271 297 315 320 322 317 311 307 306 308 309 318 324 326 329 330 330 331 333 334 338 336 332 334 335 335 330 333 334 334 337 330 318 315 nan nan nan nan nan nan nan nan nan nan nan nan nan nan nan nan nan nan nan nan nan nan
264 263 262 261 262 265 264 259 255 256 255 259 262 265 264 266 266 260 263 266 261 248 244 243 243 249 256 252 251 266 286 305 316 319 321 316 309 307 308 309 315 320 326 330 329 330 335 334 334 334 337 335 333 332 330 334 332 331 326 333 330 326 321 323 nan nan nan nan nan nan nan nan nan nan nan nan nan nan nan nan nan nan nan nan nan
261 260 259 258 258 257 259 263 259 253 253 256 259 262 260 260 260 259 268 272 268 256 251 248 245 248 253 253 253 260 274 292 309 314 318 319 312 307 305 313 314 317 324 331 331 332 336 336 335 335 335 337 335 332 334 333 333 329 327 326 328 323 320 320 317 nan nan nan nan nan nan nan nan nan nan nan nan nan nan nan nan nan nan nan nan
261 261 259 257 255 255 259 264 263 253 250 253 257 260 258 259 260 263 269 273 275 267 255 251 249 249 252 254 257 261 269 287 298 309 315 315 311 305 303 309 312 312 324 330 333 333 336 338 334 334 334 335 335 335 334 331 331 329 328 325 330 327 325 322 323 nan nan nan nan nan nan nan nan nan nan nan nan nan nan nan nan nan nan nan nan